Total_Precipitation_Accumulation
0.60 0.79 0.89 0.83 0.86 0.93 0.84 0.80 0.80 0.69 0.55 0.60 0.63 0.64 0.59 0.56 0.51 0.49 0.48 0.45 0.47 0.41 0.37 0.31 0.31 0.36 0.50 0.56 0.56 0.59 0.66 0.64 0.58 0.56 0.65 0.77 0.82 0.93 1.03 1.11 1.23 1.25 1.23 1.29
0.61 0.64 0.57 0.60 0.68 0.85 0.87 0.89 0.83 0.74 0.58 0.58 0.63 0.67 0.60 0.54 0.51 0.44 0.38 0.36 0.40 0.37 0.35 0.32 0.33 0.35 0.38 0.44 0.45 0.50 0.55 0.54 0.48 0.46 0.54 0.69 0.84 0.95 1.12 1.31 1.55 1.49 1.38 1.40
0.59 0.53 0.45 0.49 0.60 0.77 0.79 0.74 0.67 0.76 0.70 0.68 0.76 0.82 0.69 0.60 0.55 0.46 0.38 0.38 0.40 0.36 0.31 0.30 0.32 0.36 0.33 0.34 0.42 0.48 0.52 0.52 0.51 0.56 0.75 1.07 1.38 1.55 1.62 1.67 1.90 1.94 1.81 1.75
0.75 0.51 0.42 0.46 0.53 0.62 0.84 0.60 0.52 0.67 0.90 0.89 0.77 0.92 0.65 0.59 0.64 0.50 0.41 0.38 0.38 0.38 0.35 0.32 0.34 0.38 0.32 0.34 0.42 0.49 0.53 0.62 0.63 0.76 1.08 1.54 1.90 2.07 2.05 2.11 2.18 2.29 2.23 2.06
0.63 0.43 0.43 0.48 0.44 0.53 0.80 0.65 0.67 0.74 0.83 0.80 0.56 0.64 0.56 0.57 0.66 0.54 0.48 0.46 0.45 0.41 0.39 0.37 0.38 0.44 0.43 0.44 0.50 0.57 0.68 0.85 1.02 1.14 1.33 1.66 1.84 1.92 2.05 2.20 2.46 2.65 2.73 2.68
0.47 0.36 0.39 0.40 0.39 0.46 0.62 0.76 0.89 0.90 0.91 0.87 0.46 0.44 0.49 0.50 0.51 0.52 0.52 0.56 0.54 0.46 0.41 0.41 0.47 0.51 0.52 0.62 0.71 0.74 0.91 1.07 1.13 1.24 1.35 1.47 1.57 1.72 1.95 2.14 2.39 2.56 2.61 2.67
0.54 0.46 0.37 0.35 0.51 0.56 0.60 0.87 1.22 1.32 1.22 0.85 0.38 0.39 0.44 0.36 0.32 0.37 0.40 0.40 0.41 0.43 0.43 0.46 0.49 0.57 0.61 0.69 0.83 0.90 0.99 1.14 1.18 1.27 1.37 1.38 1.45 1.58 1.76 1.87 1.92 1.96 1.95 2.03
0.54 0.54 0.36 0.33 0.40 0.48 0.50 0.62 1.00 1.22 1.02 0.71 0.42 0.48 0.44 0.29 0.24 0.22 0.25 0.30 0.35 0.46 0.51 0.53 0.55 0.68 0.75 0.83 0.94 1.06 1.12 1.19 1.23 1.31 1.40 1.38 1.47 1.60 1.69 1.65 1.60 1.67 1.70 1.77
0.47 0.47 0.28 0.28 0.28 0.33 0.49 0.50 0.57 0.72 0.60 0.60 0.48 0.42 0.33 0.22 0.20 0.19 0.25 0.35 0.45 0.53 0.59 0.65 0.68 0.76 0.84 0.92 1.00 1.10 1.23 1.30 1.36 1.34 1.40 1.53 1.61 1.62 1.60 1.48 1.43 1.49 1.43 1.40
0.36 0.45 0.36 0.30 0.33 0.34 0.39 0.48 0.60 0.72 0.78 0.72 0.49 0.43 0.41 0.29 0.27 0.30 0.35 0.44 0.58 0.69 0.73 0.78 0.87 0.93 0.98 1.00 1.10 1.18 1.30 1.43 1.42 1.38 1.48 1.65 1.63 1.41 1.27 1.16 1.18 1.21 1.25 1.29
0.27 0.40 0.45 0.39 0.36 0.34 0.38 0.39 0.50 0.61 0.62 0.83 0.92 0.87 0.69 0.65 0.53 0.57 0.61 0.70 0.87 0.93 0.95 0.94 1.01 1.09 1.07 1.08 1.17 1.21 1.30 1.46 1.49 1.38 1.47 1.49 1.31 1.05 0.93 0.93 0.94 0.95 0.96 0.99
0.25 0.37 0.42 0.33 0.23 0.22 0.31 0.31 0.36 0.60 0.62 0.66 0.99 1.02 0.84 0.87 0.85 0.96 1.05 1.20 1.16 1.14 1.17 1.08 1.04 1.07 1.00 0.99 1.08 1.18 1.30 1.37 1.28 1.24 1.22 1.05 0.87 0.76 0.73 0.70 0.69 0.69 0.73 0.73
0.32 0.42 0.52 0.49 0.42 0.29 0.28 0.22 0.24 0.36 0.56 0.65 1.00 1.03 0.77 0.85 0.98 1.16 1.26 1.27 1.10 0.97 0.90 0.87 0.86 0.81 0.77 0.81 0.85 0.90 1.04 1.12 0.93 0.83 0.86 0.81 0.72 0.67 0.65 0.62 0.60 0.58 0.62 0.66
0.33 0.37 0.46 0.53 0.43 0.27 0.25 0.20 0.20 0.31 0.54 0.57 0.70 0.76 0.68 0.80 0.97 1.07 1.10 1.00 0.79 0.68 0.65 0.62 0.56 0.52 0.57 0.59 0.59 0.56 0.61 0.74 0.68 0.61 0.64 0.65 0.63 0.61 0.63 0.64 0.62 0.58 0.59 0.62
0.33 0.34 0.29 0.27 0.21 0.18 0.17 0.18 0.19 0.25 0.32 0.47 0.53 0.52 0.53 0.60 0.63 0.65 0.67 0.66 0.57 0.52 0.44 0.43 0.42 0.42 0.47 0.48 0.49 0.46 0.44 0.48 0.51 0.51 0.51 0.59 0.61 0.59 0.56 0.58 0.56 0.55 0.55 0.56
0.31 0.31 0.21 0.20 0.17 0.16 0.13 0.12 0.16 0.20 0.25 0.33 0.34 0.35 0.31 0.30 0.28 0.27 0.28 0.34 0.33 0.31 0.28 0.31 0.35 0.38 0.43 0.42 0.41 0.43 0.41 0.38 0.38 0.39 0.41 0.49 0.56 0.56 0.57 0.55 0.53 0.51 0.52 0.53
0.33 0.34 0.32 0.22 0.16 0.20 0.18 0.10 0.12 0.17 0.17 0.21 0.27 0.30 0.30 0.24 0.21 0.19 0.17 0.17 0.19 0.21 0.23 0.26 0.29 0.35 0.41 0.40 0.39 0.40 0.39 0.37 0.36 0.37 0.40 0.47 0.49 0.47 0.50 0.52 0.47 0.44 0.48 0.51
0.27 0.34 0.43 0.33 0.30 0.33 0.17 0.08 0.08 0.11 0.12 0.15 0.19 0.20 0.22 0.20 0.21 0.18 0.15 0.15 0.16 0.17 0.19 0.23 0.25 0.30 0.38 0.40 0.40 0.40 0.39 0.38 0.36 0.36 0.38 0.43 0.44 0.44 0.43 0.45 0.42 0.42 0.45 0.49
0.22 0.35 0.53 0.48 0.39 0.22 0.13 0.09 0.09 0.09 0.12 0.14 0.13 0.11 0.12 0.13 0.17 0.16 0.13 0.13 0.13 0.13 0.15 0.17 0.22 0.31 0.37 0.41 0.45 0.46 0.41 0.39 0.38 0.37 0.35 0.37 0.40 0.43 0.43 0.38 0.38 0.39 0.44 0.47
0.28 0.34 0.55 0.57 0.52 0.33 0.15 0.08 0.08 0.12 0.19 0.17 0.15 0.13 0.13 0.14 0.19 0.17 0.14 0.11 0.10 0.11 0.12 0.15 0.19 0.28 0.34 0.41 0.44 0.47 0.47 0.40 0.36 0.36 0.37 0.39 0.38 0.37 0.39 0.39 0.39 0.40 0.45 0.50
0.40 0.46 0.53 0.54 0.53 0.28 0.11 0.09 0.12 0.24 0.26 0.18 0.15 0.14 0.14 0.15 0.15 0.13 0.10 0.09 0.11 0.11 0.12 0.13 0.18 0.26 0.31 0.38 0.42 0.48 0.49 0.38 0.35 0.42 0.46 0.46 0.42 0.42 0.47 0.49 0.47 0.47 0.47 0.50
0.49 0.54 0.50 0.52 0.57 0.36 0.14 0.15 0.23 0.27 0.19 0.14 0.14 0.13 0.13 0.13 0.13 0.11 0.10 0.10 0.11 0.12 0.13 0.13 0.17 0.22 0.27 0.34 0.40 0.44 0.46 0.44 0.43 0.44 0.47 0.48 0.47 0.47 0.51 0.57 0.57 0.58 0.57 0.57
0.46 0.52 0.54 0.49 0.39 0.23 0.17 0.21 0.23 0.21 0.19 0.16 0.15 0.14 0.12 0.12 0.12 0.11 0.11 0.10 0.11 0.12 0.14 0.16 0.18 0.22 0.25 0.32 0.36 0.40 0.45 0.49 0.48 0.47 0.48 0.50 0.51 0.51 0.51 0.54 0.58 0.62 0.61 0.59
0.39 0.39 0.50 0.46 0.29 0.22 0.23 0.22 0.23 0.21 0.18 0.14 0.13 0.13 0.14 0.13 0.13 0.13 0.12 0.12 0.13 0.15 0.16 0.18 0.23 0.25 0.27 0.33 0.39 0.49 0.51 0.49 0.52 0.53 0.54 0.53 0.52 0.52 0.52 0.54 0.55 0.56 0.57 0.56
0.47 0.52 0.54 0.49 0.35 0.31 0.29 0.26 0.25 0.23 0.17 0.14 0.11 0.12 0.14 0.15 0.15 0.16 0.16 0.14 0.14 0.15 0.17 0.21 0.25 0.28 0.29 0.34 0.40 0.50 0.50 0.50 0.54 0.58 0.58 0.55 0.52 0.49 0.50 0.49 0.50 0.52 0.52 0.57
0.44 0.55 0.62 0.58 0.40 0.39 0.33 0.25 0.22 0.23 0.20 0.15 0.12 0.11 0.12 0.13 0.14 0.16 0.15 0.13 0.12 0.13 0.15 0.20 0.22 0.25 0.27 0.31 0.34 0.40 0.45 0.46 0.50 0.55 0.56 0.54 0.56 0.54 0.49 0.47 0.50 0.57 0.59 0.65